Overview Statistics Trail Chart Weather Telemetry Raw packets
 

This is the latest recevied weather packets stored in our database for station/object SV9TNF-51. If no packets are shown the sender has not sent any weather packets the latest 10 day(s).

<< 67 68 69 70 71 72 73 >>
Time Temp. Humidity Pressure Rain* Wind** Luminosity Snow
1788198174 26.67° C 64% 1011.5 hPa 0 mm 2.68 m/s, 100° - -
1788197874 26.67° C 64% 1011.5 hPa 0 mm 1.34 m/s, 145° - -
1788197574 26.67° C 64% 1011.5 hPa 0 mm 2.24 m/s, 165° - -
1788197274 26.67° C 63% 1011.5 hPa 0 mm 1.34 m/s, 150° - -
1788196974 26.67° C 62% 1011.5 hPa 0 mm 0 m/s - -
1788196674 27.22° C 62% 1011.5 hPa 0 mm 0 m/s - -
1788196374 27.22° C 62% 1011.5 hPa 0 mm 0 m/s - -
1788196074 27.78° C 62% 1011.5 hPa 0 mm 0 m/s - -
1788195774 27.78° C 63% 1011.5 hPa 0 mm 0 m/s - -
1788195473 27.78° C 63% 1011.2 hPa 0 mm 1.79 m/s, 119° - -
1788195173 28.33° C 61% 1011.2 hPa 0 mm 0 m/s - -
1788194873 28.33° C 60% 1011.2 hPa 0 mm 0 m/s - -
1788194573 28.33° C 58% 1011.2 hPa 0 mm 1.34 m/s, 126° - -
1788194273 28.89° C 58% 1011.2 hPa 0 mm 0 m/s - -
1788193973 28.89° C 58% 1011.2 hPa 0 mm 0.89 m/s, 123° - -
1788193673 28.89° C 58% 1011.2 hPa 0 mm 0.45 m/s, 123° - -
1788193373 29.44° C 56% 1011.2 hPa 0 mm 1.34 m/s, 100° - -
1788193072 29.44° C 56% 1011.2 hPa 0 mm 0 m/s - -
1788192779 29.44° C 57% 1011.2 hPa 0 mm 2.24 m/s, 157° - -
1788192472 30° C 54% 1011.5 hPa 0 mm 1.34 m/s, 137° - -
1788192172 30.56° C 53% 1011.5 hPa 0 mm 0.45 m/s, 126° - -
1788191872 30.56° C 53% 1011.5 hPa 0 mm 1.34 m/s, 127° - -
1788191572 30° C 53% 1011.5 hPa 0 mm 4.47 m/s, 36° - -
1788191272 30.56° C 53% 1011.5 hPa 0 mm 4.47 m/s, 342° - -
1788190972 31.67° C 51% 1011.5 hPa 0 mm 0.45 m/s, 127° - -

* Rain latest hour (hover to see other rain measurements)
** Current wind speed in m/s (hover to see current wind gust speed)